1487736000.98,34629,10.5,72570.8,-12.07,-16.23,-19.37,0,*64
1487736002.24,34630,10.5,72572.5,-12.07,-15.99,-19.23,0,*6B
1487736003.53,34631,10.5,72574.8,-12.07,-16.13,-19.41,0,*6F
1487736004.79,34632,10.5,72578.5,-12.07,-16.23,-19.51,0,*6E
1487736006.08,34633,10.5,72578.5,-12.07,-16.23,-19.61,0,*6C
1487736007.37,34634,10.44,72574.8,-12.07,-16.23,-19.41,0,*69
1487736008.64,34635,10.5,72578.8,-12.07,-16.23,-19.51,0,*69
1487736009.89,34636,10.5,72582.3,-12.09,-16.31,-19.65,0,*60
1487736011.15,34637,10.5,72582.8,-12.09,-16.31,-19.65,0,*61
1487736012.41,34638,10.5,72580.8,-12.09,-16.31,-19.65,0,*6E
1487736013.64,34639,10.5,72584.0,-12.09,-16.17,-19.47,0,*6B
1487736014.9,34640,10.5,72572.5,-12.09,-15.85,-19.27,0,*6B
1487736016.13,34641,10.5,72568.5,-12.09,-15.57,-18.83,0,*6A
1487736017.37,34642,10.5,72570.8,-12.09,-15.43,-18.69,0,*68
1487736018.6,34643,10.5,72566.3,-12.09,-15.43,-18.69,0,*69
1487736019.81,34644,10.5,72572.8,-12.09,-15.53,-18.73,0,*64
1487736021.08,34645,10.5,72576.5,-12.07,-15.39,-18.65,0,*60
1487736022.31,34646,10.5,72572.0,-12.07,-15.49,-18.69,0,*68
1487736023.52,34647,10.44,72566.5,-12.05,-15.49,-18.79,0,*6A
1487736024.75,34648,10.5,72572.8,-12.07,-15.49,-18.99,0,*69
1487736025.97,34649,10.5,72576.3,-12.05,-15.75,-19.13,0,*66
1487736027.21,34650,10.5,72562.8,-12.07,-15.75,-19.07,0,*69
1487736028.45,34651,10.5,72568.5,-12.05,-15.81,-19.13,0,*64
1487736029.73,34652,10.5,72568.0,-12.07,-15.85,-19.23,0,*62
1487736030.97,34653,10.5,72568.0,-12.05,-15.95,-19.27,0,*64
1487736032.21,34654,10.5,72572.5,-12.05,-15.75,-19.23,0,*69
1487736033.47,34655,10.5,72566.5,-12.05,-15.85,-19.23,0,*67
1487736034.74,34656,10.5,72574.3,-12.07,-15.95,-19.27,0,*63
1487736036.01,34657,10.5,72574.5,-12.05,-16.13,-19.41,0,*6D
1487736037.25,34658,10.5,72572.8,-12.05,-16.23,-19.71,0,*62
1487736038.47,34659,10.5,72576.3,-12.05,-16.37,-19.75,0,*62
1487736039.68,34660,10.5,72578.8,-12.05,-16.37,-19.75,0,*68
1487736040.95,34661,10.5,72574.3,-12.07,-16.37,-19.85,0,*64
1487736042.19,34662,10.5,72574.5,-12.07,-16.37,-19.75,0,*68
1487736043.48,34663,10.5,72568.8,-12.07,-16.13,-19.61,0,*6A
1487736044.75,34664,10.5,72578.0,-12.05,-16.23,-19.61,0,*6C
1487736046.02,34665,10.5,72574.8,-12.05,-16.27,-19.61,0,*69
1487736047.31,34666,10.5,72574.3,-12.07,-16.23,-19.61,0,*6C
1487736048.6,34667,10.5,72572.5,-12.07,-16.27,-19.61,0,*69
1487736049.84,34668,10.5,72574.8,-12.05,-16.23,-19.71,0,*61
1487736051.08,34669,10.5,72568.8,-12.07,-16.37,-19.75,0,*63
1487736052.34,34670,10.5,72576.0,-12.07,-16.37,-19.85,0,*64
1487736053.59,34671,10.5,72574.3,-12.07,-16.41,-19.91,0,*61
1487736054.8,34672,10.5,72578.3,-12.09,-16.45,-19.95,0,*6C
1487736056.02,34673,10.5,72578.5,-12.09,-16.55,-20.05,0,*6F
1487736057.24,34674,10.5,72574.8,-12.09,-16.55,-19.95,0,*6B
1487736058.45,34675,10.5,72578.0,-12.09,-16.55,-20.09,0,*65
1487736059.67,34676,10.5,72576.5,-12.09,-16.59,-20.25,0,*64
1487736060.89,34677,10.5,72582.3,-12.09,-16.55,-20.25,0,*69
1487736062.16,34678,10.5,72586.5,-12.11,-16.55,-20.19,0,*60
1487736063.41,34679,10.5,72584.8,-12.11,-16.59,-20.25,0,*62
1487736064.68,34680,10.5,72590.3,-12.11,-16.69,-20.25,0,*67
1487736065.89,34681,10.5,72590.3,-12.09,-16.75,-20.25,0,*62
1487736067.14,34682,10.5,72590.0,-12.11,-16.75,-20.25,0,*68
1487736068.39,34683,10.5,72596.0,-12.11,-16.79,-20.25,0,*65
1487736069.65,34684,10.5,72602.8,-12.11,-16.75,-20.35,0,*6F
1487736070.92,34685,10.5,72602.5,-12.11,-16.59,-20.19,0,*6E
1487736072.17,34686,10.5,72600.0,-12.13,-16.55,-20.19,0,*63
1487736073.41,34687,10.5,72602.5,-12.11,-16.55,-20.09,0,*61
1487736074.63,34688,10.5,72602.5,-12.13,-16.59,-20.09,0,*60
1487736075.85,34689,10.5,72602.8,-12.13,-16.55,-20.05,0,*61
1487736077.07,34690,10.5,72596.3,-12.13,-16.55,-20.05,0,*69
1487736078.31,34691,10.5,72594.3,-12.17,-16.51,-19.95,0,*6B
1487736079.55,34692,10.5,72590.8,-12.13,-16.41,-19.81,0,*68
1487736080.76,34693,10.5,72586.3,-12.13,-16.45,-19.91,0,*6C
1487736081.98,34694,10.5,72582.0,-12.13,-16.45,-19.95,0,*6F
1487736083.2,34695,10.5,72588.0,-12.13,-16.41,-19.91,0,*6E
1487736084.42,34696,10.5,72594.0,-12.13,-16.45,-19.95,0,*6D
1487736085.65,34697,10.5,72588.8,-12.13,-16.31,-19.75,0,*61
1487736086.89,34698,10.5,72578.0,-12.13,-16.13,-19.47,0,*6F
1487736088.16,34699,10.5,72582.3,-12.13,-16.17,-19.57,0,*6B
1487736089.42,34700,10.5,72578.8,-12.13,-16.31,-19.81,0,*65
1487736090.66,34701,10.5,72582.0,-12.13,-16.41,-19.81,0,*63
1487736091.88,34702,10.44,72576.8,-12.13,-16.45,-19.95,0,*61
1487736093.1,34703,10.5,72580.5,-12.13,-16.45,-19.95,0,*60
1487736094.31,34704,10.5,72584.3,-12.13,-16.45,-20.05,0,*64
1487736095.53,34705,10.5,72588.0,-12.13,-16.45,-20.05,0,*65
1487736096.77,34706,10.5,72588.8,-12.17,-16.65,-20.09,0,*6C
1487736098.02,34707,10.44,72592.0,-12.17,-16.55,-20.19,0,*6F
1487736099.23,34708,10.5,72590.8,-12.17,-16.37,-19.95,0,*6A
1487736100.45,34709,10.44,72586.0,-12.17,-16.45,-19.99,0,*62
1487736101.69,34710,10.5,72586.5,-12.17,-16.65,-20.25,0,*65
1487736102.91,34711,10.5,72586.8,-12.17,-16.59,-20.25,0,*6B
1487736104.15,34712,10.44,72580.8,-12.17,-16.59,-20.15,0,*6B
1487736105.4,34713,10.44,72582.8,-12.17,-16.65,-20.25,0,*66
1487736106.64,34714,10.5,72584.3,-12.17,-16.65,-20.25,0,*61
1487736107.86,34715,10.5,72586.8,-12.17,-16.59,-20.09,0,*61
1487736109.08,34716,10.5,72582.5,-12.17,-16.59,-20.09,0,*62
1487736110.37,34717,10.5,72592.5,-12.19,-16.65,-20.15,0,*6F
1487736111.66,34718,10.5,72592.3,-12.19,-16.65,-20.15,0,*60
1487736112.95,34719,10.5,72588.3,-12.19,-16.13,-19.65,0,*6D
1487736114.22,34720,10.5,72582.8,-12.17,-16.17,-19.61,0,*69
1487736115.48,34721,10.5,72564.8,-12.17,-16.17,-19.61,0,*68
1487736116.72,34722,10.5,72560.3,-12.17,-16.37,-19.85,0,*63
1487736117.94,34723,10.5,72564.8,-12.17,-16.45,-19.99,0,*6A
1487736119.19,34724,10.5,72566.3,-12.17,-16.51,-20.15,0,*66
1487736120.43,34725,10.5,72574.0,-12.17,-16.59,-20.15,0,*6F
1487736121.69,34726,10.5,72578.3,-12.17,-16.65,-20.15,0,*63
1487736122.93,34727,10.5,72580.3,-12.17,-16.59,-20.15,0,*6D
1487736124.2,34728,10.5,72586.0,-12.19,-16.65,-20.29,0,*6C
1487736125.49,34729,10.5,72586.5,-12.19,-16.69,-20.35,0,*6C
1487736126.78,34730,10.5,72586.3,-12.19,-16.69,-20.35,0,*64
1487736128.05,34731,10.5,72590.5,-12.19,-16.55,-20.19,0,*64
1487736129.35,34732,10.5,72588.8,-12.19,-16.65,-20.19,0,*64
1487736130.62,34733,10.5,72590.3,-12.21,-16.65,-20.19,0,*6E
1487736131.91,34734,10.5,72590.5,-12.19,-16.65,-20.15,0,*6E
1487736133.17,34735,10.5,72592.3,-12.21,-16.65,-20.15,0,*64
1487736134.46,34736,10.5,72590.8,-12.19,-16.65,-20.19,0,*60
1487736135.71,34737,10.5,72588.0,-12.19,-16.55,-19.99,0,*60
1487736136.95,34738,10.5,72584.8,-12.19,-16.55,-20.05,0,*60
1487736138.22,34739,10.5,72584.8,-12.19,-16.51,-20.05,0,*65
1487736139.48,34740,10.5,72580.3,-12.21,-16.69,-20.19,0,*66
1487736140.75,34741,10.5,72584.3,-12.19,-16.65,-20.29,0,*63
1487736142.02,34742,10.5,72590.3,-12.21,-16.65,-20.15,0,*64
1487736143.31,34743,10.5,72580.3,-12.19,-16.69,-20.19,0,*6E
1487736144.58,34744,10.5,72576.5,-12.21,-16.65,-20.19,0,*6E
1487736145.82,34745,10.5,72578.5,-12.21,-16.69,-20.29,0,*60
1487736147.08,34746,10.5,72586.8,-12.19,-16.55,-20.15,0,*68
1487736148.38,34747,10.5,72584.5,-12.19,-16.65,-20.35,0,*68
1487736149.64,34748,10.5,72582.0,-12.21,-16.65,-20.35,0,*6C
1487736150.94,34749,10.5,72574.5,-12.19,-16.51,-20.19,0,*6F
1487736152.18,34750,10.5,72582.8,-12.21,-16.65,-20.29,0,*68
1487736153.45,34751,10.5,72584.3,-12.21,-16.65,-20.19,0,*6A
1487736154.72,34752,10.5,72586.3,-12.19,-16.55,-20.19,0,*61
1487736155.98,34753,10.5,72588.8,-12.21,-16.65,-20.35,0,*66
1487736157.25,34754,10.44,72588.3,-12.21,-16.65,-20.19,0,*6F
1487736158.55,34755,10.5,72590.8,-12.19,-16.65,-20.19,0,*65
1487736159.82,34756,10.5,72590.8,-12.21,-16.65,-20.19,0,*6D
1487736161.06,34757,10.5,72588.5,-12.21,-16.69,-20.29,0,*63
1487736162.32,34758,10.44,72584.5,-12.21,-16.69,-20.35,0,*61
1487736163.54,34759,10.5,72580.8,-12.21,-16.79,-20.29,0,*6C
1487736164.79,34760,10.5,72574.8,-12.23,-16.75,-20.39,0,*69
1487736166.03,34761,10.5,72582.3,-12.23,-16.75,-20.39,0,*68
1487736167.33,34762,10.5,72576.5,-12.19,-16.65,-20.19,0,*61
1487736168.57,34763,10.5,72580.3,-12.21,-16.55,-20.15,0,*64
1487736169.81,34764,10.5,72586.3,-12.21,-16.55,-20.19,0,*6F
1487736171.06,34765,10.5,72590.0,-12.23,-16.59,-20.25,0,*6F
1487736172.33,34766,10.5,72588.3,-12.21,-16.65,-20.19,0,*6E
1487736173.57,34767,10.44,72586.8,-12.21,-16.69,-20.29,0,*60
1487736174.83,34768,10.5,72588.5,-12.21,-16.65,-20.35,0,*6E
1487736176.1,34769,10.5,72588.3,-12.21,-16.69,-20.35,0,*63
1487736177.34,34770,10.5,72590.3,-12.23,-16.75,-20.39,0,*68
1487736178.59,34771,10.5,72594.3,-12.23,-16.89,-20.39,0,*6A
1487736179.84,34772,10.5,72594.8,-12.23,-16.89,-20.39,0,*69
1487736181.11,34773,10.5,72594.8,-12.23,-16.69,-20.39,0,*66
1487736182.35,34774,10.5,72592.3,-12.23,-16.83,-20.39,0,*65
1487736183.62,34775,10.44,72588.5,-12.23,-16.59,-20.19,0,*61
1487736184.87,34776,10.5,72596.3,-12.23,-16.75,-20.39,0,*6E
1487736186.14,34777,10.5,72596.5,-12.23,-16.69,-20.39,0,*62
1487736187.39,34778,10.5,72598.8,-12.23,-16.83,-20.39,0,*69
1487736188.64,34779,10.5,72596.5,-12.23,-16.75,-20.39,0,*61
1487736189.91,34780,10.44,72594.8,-12.23,-16.89,-20.49,0,*63
1487736191.18,34781,10.5,72594.5,-12.23,-16.89,-20.49,0,*62
1487736192.44,34782,10.5,72592.0,-12.23,-16.89,-20.53,0,*6A
1487736193.71,34783,10.5,72590.0,-12.23,-16.75,-20.35,0,*68
1487736194.96,34784,10.5,72592.3,-12.23,-16.83,-20.39,0,*6A
1487736196.22,34785,10.44,72590.0,-12.23,-16.83,-20.35,0,*67
1487736197.47,34786,10.5,72592.5,-12.23,-16.75,-20.39,0,*61
1487736198.73,34787,10.5,72594.8,-12.23,-16.89,-20.53,0,*6F
1487736200.0,34788,10.5,72598.5,-12.23,-16.93,-20.53,0,*6B
1487736201.24,34789,10.5,72596.3,-12.23,-16.93,-20.63,0,*69
1487736202.51,34790,10.5,72600.3,-12.23,-16.83,-20.49,0,*68
1487736203.78,34791,10.5,72600.8,-12.23,-16.89,-20.49,0,*63
1487736205.05,34792,10.5,72596.3,-12.23,-16.89,-20.53,0,*6B
1487736206.28,34793,10.5,72590.5,-12.23,-16.93,-20.69,0,*68
1487736207.55,34794,10.5,72588.5,-12.27,-17.07,-20.73,0,*6C
1487736208.79,34795,10.5,72580.0,-12.27,-16.97,-20.69,0,*6E
1487736210.03,34796,10.44,72580.0,-12.27,-16.93,-20.59,0,*6A
1487736211.3,34797,10.44,72582.0,-12.27,-16.97,-20.53,0,*65
1487736212.55,34798,10.44,72586.8,-12.27,-16.89,-20.59,0,*6F
1487736213.8,34799,10.5,72586.5,-12.29,-16.75,-20.53,0,*69
1487736215.04,34800,10.44,72582.0,-12.27,-16.75,-20.43,0,*69
1487736216.32,34801,10.5,72588.5,-12.27,-16.65,-20.43,0,*69
1487736217.57,34802,10.44,72580.8,-12.27,-16.75,-20.43,0,*6B
1487736218.81,34803,10.5,72582.0,-12.27,-16.79,-20.43,0,*66
1487736220.06,34804,10.5,72578.3,-12.27,-16.75,-20.29,0,*61
1487736221.3,34805,10.5,72576.8,-12.27,-16.79,-20.43,0,*60
1487736222.55,34806,10.5,72572.5,-12.29,-16.89,-20.53,0,*63
1487736223.8,34807,10.5,72570.0,-12.29,-16.79,-20.53,0,*6D
1487736225.04,34808,10.5,72572.5,-12.29,-16.89,-20.53,0,*6D
1487736226.31,34809,10.44,72564.3,-12.27,-16.89,-20.53,0,*62
1487736227.55,34810,10.5,72566.0,-12.27,-16.89,-20.69,0,*63
1487736228.81,34811,10.5,72568.5,-12.29,-16.65,-20.39,0,*6B
1487736230.06,34812,10.5,72572.8,-12.29,-16.65,-20.39,0,*68
1487736231.31,34813,10.5,72582.0,-12.27,-16.75,-20.43,0,*6B
1487736232.56,34814,10.5,72584.0,-12.29,-16.65,-20.43,0,*63
1487736233.81,34815,10.44,72582.8,-12.27,-16.75,-20.43,0,*6D
1487736235.06,34816,10.44,72582.5,-12.29,-16.75,-20.53,0,*61
1487736236.3,34817,10.5,72578.3,-12.27,-16.89,-20.59,0,*67
1487736237.55,34818,10.5,72576.0,-12.27,-16.89,-20.59,0,*68
1487736238.77,34819,10.5,72580.8,-12.29,-16.89,-20.59,0,*67
1487736240.02,34820,10.5,72580.5,-12.29,-17.07,-20.73,0,*62
1487736241.26,34821,10.5,72580.5,-12.29,-16.93,-20.53,0,*6D
1487736242.48,34822,10.5,72570.0,-12.29,-16.89,-20.59,0,*6F
1487736243.73,34823,10.5,72564.0,-12.27,-16.93,-20.59,0,*6B
1487736244.95,34824,10.5,72568.0,-12.29,-16.97,-20.73,0,*6E
1487736246.17,34825,10.5,72574.8,-12.29,-16.97,-20.73,0,*6F
1487736247.41,34826,10.5,72576.3,-12.29,-17.07,-20.73,0,*64
1487736248.63,34827,10.5,72580.5,-12.29,-16.97,-20.69,0,*66
1487736249.87,34828,10.5,72576.3,-12.31,-16.93,-20.63,0,*6E
1487736251.12,34829,10.5,72576.3,-12.31,-16.97,-20.73,0,*6A
1487736252.38,34830,10.44,72578.5,-12.33,-17.11,-20.79,0,*65
1487736253.63,34831,10.5,72584.0,-12.31,-16.97,-20.63,0,*62
1487736254.84,34832,10.5,72586.3,-12.33,-16.93,-20.73,0,*66
1487736256.14,34833,10.5,72594.5,-12.31,-17.03,-20.79,0,*67
1487736257.38,34834,10.5,72598.3,-12.31,-16.97,-20.73,0,*66
1487736258.68,34835,10.5,72602.0,-12.31,-17.03,-20.79,0,*61
1487736259.94,34836,10.5,72598.8,-12.33,-17.03,-20.79,0,*60
1487736261.18,34837,10.5,72596.3,-12.31,-16.93,-20.73,0,*61
1487736262.42,34838,10.5,72600.0,-12.33,-16.97,-20.79,0,*62
1487736263.63,34839,10.5,72602.0,-12.33,-16.93,-20.59,0,*65
1487736264.85,34840,10.5,72602.5,-12.33,-16.97,-20.73,0,*67
1487736266.07,34841,10.5,72604.8,-12.33,-16.93,-20.59,0,*6A
1487736267.31,34842,10.5,72604.8,-12.31,-16.93,-20.59,0,*6B
1487736268.62,34843,10.5,72608.0,-12.31,-16.69,-20.49,0,*6E
1487736269.89,34844,10.5,72610.5,-12.31,-16.69,-20.43,0,*63
1487736271.17,34845,10.44,72608.5,-12.31,-16.69,-20.43,0,*62
1487736272.42,34846,10.5,72612.0,-12.31,-16.79,-20.43,0,*60
1487736273.72,34847,10.5,72612.3,-12.31,-16.65,-20.19,0,*63
1487736274.94,34848,10.5,72604.8,-12.33,-16.55,-20.29,0,*6E
1487736276.18,34849,10.44,72598.5,-12.31,-16.37,-20.05,0,*67
1487736277.48,34850,10.5,72592.0,-12.31,-16.51,-20.19,0,*62
1487736278.75,34851,10.5,72590.0,-12.31,-16.65,-20.43,0,*6B
1487736280.06,34852,10.5,72596.0,-12.31,-16.69,-20.49,0,*6E
1487736281.33,34853,10.5,72596.8,-12.31,-16.65,-20.29,0,*65
1487736282.62,34854,10.5,72590.5,-12.31,-16.23,-19.81,0,*68
1487736283.84,34855,10.5,72582.3,-12.29,-16.45,-20.25,0,*64
1487736285.12,34856,10.44,72576.3,-12.31,-16.69,-20.43,0,*60
1487736286.4,34857,10.5,72596.3,-12.31,-16.79,-20.49,0,*6A
1487736287.64,34858,10.5,72598.3,-12.29,-16.51,-20.25,0,*6C
1487736288.9,34859,10.5,72594.5,-12.27,-15.99,-19.61,0,*6E
1487736290.17,34860,10.5,72586.8,-12.27,-15.63,-19.31,0,*64
1487736291.43,34861,10.5,72580.3,-12.23,-15.67,-19.31,0,*65
1487736292.72,34862,10.44,72550.8,-12.27,-16.09,-19.85,0,*66
1487736293.99,34863,10.5,72558.3,-12.27,-16.17,-19.99,0,*65
1487736295.27,34864,10.44,72554.3,-12.23,-16.31,-20.19,0,*60
1487736296.54,34865,10.5,72576.0,-12.27,-16.23,-19.99,0,*64
1487736297.8,34866,10.44,72582.3,-12.27,-16.45,-20.15,0,*69
1487736299.08,34867,10.5,72588.5,-12.27,-16.31,-20.15,0,*6B
1487736300.35,34868,10.5,72588.5,-12.27,-16.51,-20.25,0,*61
1487736301.59,34869,10.5,72598.3,-12.23,-16.45,-20.25,0,*61
1487736302.85,34870,10.44,72590.0,-12.23,-16.45,-20.35,0,*68
1487736304.13,34871,10.44,72594.8,-12.27,-16.65,-20.43,0,*6E
1487736305.39,34872,10.5,72592.0,-12.23,-16.59,-20.35,0,*67
1487736306.64,34873,10.5,72588.5,-12.23,-16.55,-20.25,0,*6B
1487736307.89,34874,10.5,72590.5,-12.23,-16.59,-20.39,0,*6D
1487736309.16,34875,10.5,72590.8,-12.23,-16.69,-20.39,0,*6F
1487736310.4,34876,10.44,72590.3,-12.23,-16.03,-19.71,0,*66
1487736311.66,34877,10.5,72590.3,-12.23,-15.71,-19.41,0,*62
1487736312.89,34878,10.5,72590.3,-12.23,-15.95,-19.71,0,*64
1487736314.12,34879,10.5,72584.0,-12.23,-15.99,-19.71,0,*69
1487736315.38,34880,10.5,72584.3,-12.23,-15.95,-19.81,0,*6C
1487736316.67,34881,10.5,72588.8,-12.23,-16.13,-19.81,0,*60
1487736317.9,34882,10.44,72566.0,-12.23,-15.99,-19.71,0,*6D
1487736319.14,34883,10.5,72568.0,-12.21,-15.67,-19.41,0,*6C
1487736320.35,34884,10.44,72576.3,-12.21,-15.63,-19.37,0,*6E
1487736321.59,34885,10.44,72580.3,-12.21,-15.63,-19.27,0,*6E
1487736322.83,34886,10.5,72590.5,-12.19,-15.67,-19.37,0,*63
1487736324.09,34887,10.44,72586.0,-12.19,-15.63,-19.23,0,*63
1487736325.35,34888,10.44,72584.8,-12.19,-15.63,-19.23,0,*6C
1487736326.61,34889,10.5,72588.5,-12.19,-15.49,-19.23,0,*65
1487736327.87,34890,10.5,72590.3,-12.19,-15.53,-19.23,0,*66
1487736329.09,34891,10.5,72590.8,-12.13,-15.53,-19.17,0,*6A
1487736330.34,34892,10.5,72590.3,-12.17,-15.57,-19.23,0,*6E
1487736331.6,34893,10.5,72592.3,-12.17,-15.43,-19.23,0,*6A
1487736332.82,34894,10.5,72590.3,-12.13,-15.29,-19.13,0,*66
1487736334.03,34895,10.5,72582.0,-12.17,-15.29,-19.03,0,*62
1487736335.24,34896,10.5,72576.3,-12.13,-15.53,-19.17,0,*6D
1487736336.45,34897,10.5,72578.3,-12.13,-15.67,-19.47,0,*6E
1487736337.74,34898,10.5,72576.3,-12.11,-15.81,-19.65,0,*6B
1487736339.03,34899,10.5,72576.3,-12.11,-15.89,-19.81,0,*68
1487736340.3,34900,10.44,72576.3,-12.11,-16.17,-20.05,0,*6B
1487736341.56,34901,10.5,72586.0,-12.11,-16.27,-20.09,0,*65
1487736342.78,34902,10.5,72590.5,-12.09,-16.41,-20.25,0,*61
1487736344.05,34903,10.5,72582.0,-12.11,-16.17,-20.09,0,*64
1487736345.29,34904,10.5,72578.8,-12.11,-16.03,-19.91,0,*6D
1487736346.55,34905,10.5,72578.8,-12.11,-16.03,-19.81,0,*6D
1487736347.78,34906,10.44,72572.5,-12.09,-15.99,-19.81,0,*67
1487736349.01,34907,10.5,72572.3,-12.09,-15.85,-19.75,0,*60
1487736350.22,34908,10.5,72576.0,-12.09,-16.03,-20.05,0,*6F
1487736351.49,34909,10.44,72578.8,-12.11,-16.27,-20.25,0,*63
1487736352.73,34910,10.5,72578.5,-12.09,-16.17,-20.05,0,*63
1487736353.97,34911,10.5,72572.3,-12.09,-15.85,-19.75,0,*67
1487736355.17,34912,10.5,72570.3,-12.09,-15.99,-19.95,0,*67
1487736356.41,34913,10.5,72572.0,-12.09,-16.17,-20.09,0,*6C
1487736357.65,34914,10.5,72576.3,-12.09,-16.31,-20.25,0,*61
1487736358.91,34915,10.5,72578.8,-12.09,-16.27,-20.35,0,*66
1487736360.13,34916,10.5,72576.3,-12.09,-16.41,-20.39,0,*69
1487736361.35,34917,10.5,72576.3,-12.09,-16.55,-20.39,0,*6D
1487736362.63,34918,10.5,72580.3,-12.11,-16.55,-20.49,0,*6C
1487736363.88,34919,10.5,72578.8,-12.11,-16.45,-20.39,0,*6B
1487736365.12,34920,10.5,72580.8,-12.09,-16.55,-20.49,0,*6E
1487736366.39,34921,10.44,72580.5,-12.11,-16.55,-20.35,0,*6D
1487736367.64,34922,10.5,72582.5,-12.09,-16.31,-20.35,0,*65
1487736368.91,34923,10.5,72582.5,-12.11,-16.27,-20.25,0,*6B
1487736370.2,34924,10.5,72580.0,-12.11,-16.31,-20.19,0,*64
1487736371.47,34925,10.5,72580.5,-12.11,-16.45,-20.35,0,*68
1487736372.74,34926,10.5,72580.3,-12.11,-16.55,-20.53,0,*6A
1487736373.99,34927,10.5,72584.5,-12.11,-16.41,-20.39,0,*62
1487736375.24,34928,10.5,72578.8,-12.11,-16.41,-20.39,0,*6D
1487736376.49,34929,10.5,72582.3,-12.09,-16.45,-20.49,0,*66
1487736377.76,34930,10.5,72576.3,-12.11,-16.55,-20.49,0,*66
1487736379.04,34931,10.44,72574.3,-12.11,-16.55,-20.49,0,*67
1487736380.31,34932,10.5,72570.8,-12.11,-16.55,-20.35,0,*6F
1487736381.56,34933,10.5,72570.3,-12.11,-16.41,-20.39,0,*67
1487736382.82,34934,10.5,72566.3,-12.11,-16.45,-20.35,0,*68
1487736384.06,34935,10.5,72560.0,-12.09,-16.41,-20.35,0,*64
1487736385.3,34936,10.5,72572.0,-12.09,-16.45,-20.35,0,*63
1487736386.58,34937,10.5,72570.0,-12.11,-16.31,-20.35,0,*68
1487736387.84,34938,10.5,72570.0,-12.09,-16.31,-20.35,0,*6E
1487736389.12,34939,10.44,72574.0,-12.11,-16.31,-20.35,0,*66
1487736390.39,34940,10.5,72574.8,-12.09,-16.17,-20.19,0,*6B
1487736391.63,34941,10.5,72574.5,-12.09,-16.31,-20.39,0,*6C
1487736392.87,34942,10.44,72564.8,-12.09,-16.45,-20.53,0,*60
1487736394.11,34943,10.5,72556.5,-12.09,-16.45,-20.49,0,*6A
1487736395.35,34944,10.44,72558.8,-12.09,-16.41,-20.35,0,*62
1487736396.61,34945,10.5,72558.8,-12.09,-16.27,-20.19,0,*6D
1487736397.85,34946,10.5,72558.8,-12.09,-16.27,-20.25,0,*61
1487736399.06,34947,10.5,72566.5,-12.09,-15.99,-19.95,0,*67
1487736400.29,34948,10.44,72562.8,-12.11,-15.99,-19.95,0,*61
1487736401.53,34949,10.5,72564.8,-12.09,-16.13,-20.09,0,*67
1487736402.75,34950,10.44,72556.0,-12.05,-16.37,-20.29,0,*67
1487736404.0,34951,10.44,72560.3,-12.07,-16.41,-20.29,0,*65
1487736405.25,34952,10.5,72564.5,-12.05,-16.41,-20.49,0,*62
1487736406.47,34953,10.5,72570.0,-12.05,-16.37,-20.43,0,*68
1487736407.72,34954,10.5,72580.0,-12.07,-16.55,-20.63,0,*6B
1487736408.97,34955,10.44,72578.5,-12.05,-16.41,-20.35,0,*6E
1487736410.26,34956,10.44,72580.3,-12.07,-16.13,-20.19,0,*66
1487736411.5,34957,10.5,72578.0,-12.07,-15.99,-19.99,0,*64
1487736412.77,34958,10.44,72570.8,-12.07,-16.09,-20.05,0,*6E
1487736414.04,34959,10.5,72570.5,-12.05,-16.27,-20.19,0,*6C
1487736415.28,34960,10.5,72570.5,-12.05,-16.27,-20.29,0,*65
1487736416.52,34961,10.44,72568.0,-12.05,-16.41,-20.35,0,*69
1487736417.77,34962,10.5,72586.8,-12.05,-16.13,-20.29,0,*60
1487736419.01,34963,10.5,72578.5,-12.05,-16.13,-20.29,0,*61
1487736420.25,34964,10.5,72578.0,-12.05,-15.95,-20.15,0,*64
1487736421.52,34965,10.5,72566.5,-12.05,-16.13,-20.19,0,*64
1487736422.79,34966,10.5,72564.5,-12.07,-16.23,-20.29,0,*65
1487736424.08,34967,10.44,72568.0,-12.07,-16.13,-20.19,0,*64
1487736425.35,34968,10.44,72562.8,-12.05,-16.09,-20.15,0,*6E
1487736426.62,34969,10.44,72564.8,-12.05,-16.13,-20.19,0,*68
1487736427.87,34970,10.5,72570.3,-12.05,-16.37,-20.35,0,*68
1487736429.14,34971,10.5,72576.0,-12.01,-16.37,-20.53,0,*6D
1487736430.41,34972,10.5,72576.0,-12.01,-16.45,-20.53,0,*6B
1487736431.66,34973,10.5,72576.0,-12.01,-16.37,-20.43,0,*6E
1487736432.94,34974,10.5,72582.0,-12.01,-16.17,-20.25,0,*6B
1487736434.2,34975,10.5,72576.5,-12.01,-16.31,-20.29,0,*62
1487736435.46,34976,10.5,72580.5,-12.01,-16.45,-20.59,0,*65
1487736436.71,34977,10.44,72578.0,-12.01,-16.37,-20.39,0,*67
1487736437.98,34978,10.5,72584.3,-12.01,-16.31,-20.39,0,*6E
1487736439.21,34979,10.5,72582.8,-12.05,-16.41,-20.43,0,*61
1487736440.43,34980,10.5,72594.0,-11.99,-16.37,-20.43,0,*60
1487736441.7,34981,10.5,72590.8,-12.01,-16.31,-20.39,0,*68
1487736442.97,34982,10.44,72594.5,-12.01,-16.31,-20.29,0,*6A
1487736444.24,34983,10.44,72590.8,-12.01,-16.17,-20.25,0,*63
1487736445.51,34984,10.5,72590.0,-12.01,-16.31,-20.43,0,*60
1487736446.78,34985,10.5,72588.8,-12.01,-16.31,-20.29,0,*6D
1487736448.03,34986,10.5,72598.3,-12.01,-16.37,-20.43,0,*64
1487736449.3,34987,10.5,72602.5,-12.01,-16.31,-20.43,0,*63
1487736450.57,34988,10.5,72594.8,-12.01,-16.31,-20.43,0,*6C
1487736451.84,34989,10.5,72584.8,-12.01,-16.51,-20.59,0,*60
1487736453.11,34990,10.44,72588.3,-12.01,-16.59,-20.79,0,*62
1487736454.39,34991,10.5,72590.8,-12.01,-16.65,-20.89,0,*63
1487736455.66,34992,10.44,72586.0,-11.99,-16.65,-20.79,0,*6D
1487736456.95,34993,10.44,72570.0,-12.01,-16.65,-20.79,0,*6E
1487736458.17,34994,10.5,72578.0,-11.99,-16.45,-20.63,0,*62
1487736459.44,34995,10.5,72576.8,-12.01,-16.59,-20.79,0,*67
1487736460.72,34996,10.5,72578.5,-12.01,-16.65,-20.63,0,*60
1487736461.97,34997,10.44,72584.0,-12.01,-16.37,-20.59,0,*6F
1487736463.22,34998,10.5,72584.5,-12.01,-16.45,-20.73,0,*6D
1487736464.47,34999,10.5,72582.0,-12.01,-16.45,-20.73,0,*6C
1487736465.74,35000,10.44,72570.8,-12.01,-16.65,-20.93,0,*68
1487736467.01,35001,10.44,72562.0,-12.01,-16.79,-21.03,0,*6C
1487736468.25,35002,10.5,72574.8,-12.01,-16.83,-21.09,0,*60
1487736469.49,35003,10.44,72568.0,-12.01,-16.83,-21.09,0,*61
1487736470.73,35004,10.5,72570.3,-12.01,-16.83,-21.09,0,*66
1487736472.0,35005,10.44,72562.8,-12.05,-17.11,-21.27,0,*65
1487736473.24,35006,10.44,72550.8,-12.01,-16.93,-21.17,0,*6A
1487736474.49,35007,10.44,72552.5,-12.01,-16.97,-21.17,0,*6F
1487736475.76,35008,10.44,72560.8,-12.05,-17.11,-21.27,0,*68
1487736477.03,35009,10.44,72566.8,-12.05,-17.11,-21.27,0,*69
1487736478.27,35010,10.44,72572.5,-12.05,-16.97,-21.23,0,*6A
1487736479.57,35011,10.5,72578.3,-12.01,-17.07,-21.33,0,*66
1487736480.83,35012,10.5,72576.8,-12.07,-17.11,-21.39,0,*6E
1487736482.07,35013,10.5,72582.5,-12.05,-17.03,-21.39,0,*6E
1487736483.34,35014,10.44,72578.8,-12.07,-17.03,-21.39,0,*6B
1487736484.6,35015,10.44,72578.0,-12.09,-17.17,-21.33,0,*6B
1487736485.9,35016,10.5,72582.8,-12.07,-17.03,-21.27,0,*66
1487736487.19,35017,10.44,72576.5,-12.07,-17.11,-21.27,0,*64
1487736488.49,35018,10.44,72572.0,-12.07,-17.03,-21.23,0,*6C
1487736489.76,35019,10.44,72568.8,-12.07,-17.03,-21.13,0,*6E
1487736490.97,35020,10.5,72572.3,-12.09,-16.89,-21.13,0,*69
1487736492.18,35021,10.44,72568.0,-12.09,-16.89,-21.13,0,*68
1487736493.44,35022,10.5,72570.0,-12.07,-16.75,-20.99,0,*65
1487736494.74,35023,10.44,72570.8,-12.07,-16.69,-20.99,0,*69
1487736496.03,35024,10.5,72574.5,-12.07,-16.65,-20.99,0,*62
1487736497.27,35025,10.5,72572.5,-12.07,-16.89,-21.09,0,*69
1487736498.54,35026,10.5,72580.8,-12.07,-16.97,-21.27,0,*69
1487736499.8,35027,10.5,72582.3,-12.09,-17.07,-21.33,0,*6B